[[{"header":{"parameterUnit":"m.s-1","parameterCategory":1,"la1":30.2991,"la2":30.254,"lo1":-89.0895,"lo2":-89.0444,"dy":0.0017,"dx":0.0017,"nx":28,"ny":28,"refTime":"2025-06-18T21:00:00:Z","depth":0,"parameterNumber":2,"parameterNumberName":"U-component_of_WINDS"},"data":[0,0,0,0,0,0,0,0,0,0,0,0,0,0,0,0,0,0,0,0,0,0,0,0,0,0,0,0,0,0,0,0,0,0,0,0,0,0,0,0,0,0,0,0,0,0,0,0,0,0,0,0,0,0,0,0,0,0,4.1243,4.1244,0,4.1358,4.136,4.1361,4.1297,4.1294,4.1291,4.1288,4.141,4.1416,4.1422,0,0,0,0,0,0,0,0,0,0,0,0,0,4.0967,4.0972,4.1242,4.1244,4.1245,4.1358,4.136,4.1361,4.1298,4.1294,4.129,4.1286,4.1408,4.1415,4.1423,0,0,0,0,0,0,0,0,0,0,0,0,0,4.1085,4.0974,4.1242,4.1227,4.1227,4.1358,4.136,4.1362,4.1299,4.1294,4.1289,4.1285,4.1405,4.1414,4.1424,4.1577,0,0,4.1452,4.1456,0,0,0,0,0,0,0,0,4.1078,4.1095,4.1228,4.1228,4.1228,4.1308,4.1307,4.1434,4.13,4.1272,4.1288,4.1282,4.138,4.1391,4.1424,4.1583,4.1588,4.1453,4.1459,4.1463,4.1465,0,0,0,0,0,0,0,4.107,4.109,4.1288,4.123,4.123,4.1215,4.1226,4.1331,4.1351,4.1274,4.1269,4.1284,4.1379,4.1415,4.1426,4.159,4.1453,4.1461,4.1467,4.147,4.1876,4.1881,0,0,0,0,0,0,4.1063,4.1084,4.1285,4.1292,4.114,4.1224,4.1236,4.1288,4.135,4.1355,4.1288,4.128,4.1401,4.1415,4.143,4.161,4.1462,4.1471,4.1477,4.1871,4.1877,4.1883,0,0,0,0,0,0,4.1057,4.1081,4.128,4.1187,4.1211,4.1233,4.1291,4.1292,4.1327,4.136,4.1364,4.132,4.1398,4.1417,4.154,4.1614,4.1475,4.1484,4.1865,4.1873,4.188,4.1974,0,0,0,0,0,0,4.105,4.108,4.1138,4.1188,4.1216,4.1388,4.1296,4.1298,4.1343,4.1335,4.1392,4.1397,4.1396,4.1526,4.1549,4.1624,4.1491,4.1858,4.1868,4.1877,4.1965,4.1984,4.2001,0,0,0,0,0,4.104,4.1162,4.1142,4.1166,4.1289,4.1392,4.1408,4.1403,4.135,4.1408,4.1429,4.1395,4.1602,4.1539,4.1564,4.1644,4.1853,4.1865,4.1877,4.1957,4.1981,4.2001,0,0,0,0,0,0,4.1122,4.1168,4.1146,4.1288,4.1336,4.1381,4.1455,4.143,4.1495,4.1485,4.1477,4.1491,4.1617,4.1643,4.1572,4.1793,4.1719,4.1737,4.1772,4.1795,4.1813,4.1803,4.1499,0,0,0,0,0,4.1157,4.1236,4.1272,4.1394,4.1419,4.1433,4.1478,4.147,4.152,4.154,4.157,4.1621,4.1697,4.1748,4.182,4.1968,4.1978,4.2035,4.2053,4.2068,4.2083,4.216,4.2184,4.1921,4.1921,4.192,0,0,4.1229,4.1264,4.1315,4.1411,4.1447,4.1529,4.1451,4.1542,4.1602,4.1555,4.1671,4.1695,4.1751,4.1886,4.1947,4.1911,4.2158,4.2083,4.2095,4.2101,4.2174,4.2199,4.2221,4.1929,4.1927,4.1926,0,0,4.1402,4.1437,4.154,4.1578,4.1633,4.1641,4.1666,4.1714,4.1727,4.1844,4.1809,4.1881,4.2013,4.2053,4.2091,4.2275,4.2245,4.23,4.2395,4.247,4.249,4.2509,4.2572,4.2595,4.2314,4.2315,4.2315,0,4.1485,4.1606,4.1597,4.1689,4.1731,4.1691,4.1794,4.1832,4.1909,4.1938,4.1897,4.2059,4.2094,4.2237,4.2281,4.2314,4.2341,4.2293,4.2488,4.2506,4.2523,4.2583,4.2607,4.232,4.232,4.2319,4.2319,0,4.1704,4.1788,4.1865,4.1937,4.1989,4.2087,4.2092,4.2145,4.2132,4.2144,4.2262,4.2302,4.238,4.2413,4.2403,4.2554,4.2529,4.2488,4.2414,4.2555,4.2611,4.2634,4.2329,4.2327,4.2325,4.2324,0,0,4.1933,4.1997,4.2025,4.2055,4.2112,4.2177,4.2272,4.2347,4.2391,4.2445,4.2523,4.2634,4.2596,4.2638,4.2632,4.2698,4.2838,4.2649,4.265,4.268,4.3003,4.3031,4.3058,4.2818,4.2823,4.2826,4.2997,0,4.2107,4.2272,4.2265,4.2419,4.2495,4.2456,4.2538,4.2581,4.2595,4.2662,4.2677,4.2755,4.2699,4.2724,4.2788,4.2807,4.2902,4.2795,4.289,4.2894,4.2875,4.3088,4.312,4.3279,4.3019,4.3023,4.3026,0,4.2333,4.2391,4.2552,4.2593,4.2625,4.2699,4.2765,4.283,4.2877,4.2882,4.2929,4.291,4.3005,4.2929,4.3059,4.2986,4.3025,4.304,4.3046,4.3053,4.2967,4.3099,4.333,4.3353,4.3061,4.3058,4.3056,0,4.248,4.2599,4.271,4.2738,4.279,4.2842,4.2867,4.291,4.2954,4.3012,4.3039,4.3109,4.3146,4.32,4.32,4.3145,4.3331,4.3255,4.3336,4.3336,4.3376,4.3373,4.3614,4.3405,4.3405,4.3404,4.3404,0,4.2674,4.2773,4.2776,4.2844,4.2953,4.2944,4.3052,4.3071,4.3109,4.318,4.3151,4.3218,4.3215,4.3283,4.3284,4.339,4.3408,4.3413,4.3412,4.3415,4.3414,4.3439,4.3427,4.341,4.3409,4.3408,4.3407,0,4.2857,4.2863,4.298,4.3019,4.3031,4.3109,4.3142,4.3206,4.3216,4.3305,4.3326,4.3342,4.3419,4.3425,4.3516,4.3516,4.3644,4.3632,4.3627,4.3624,4.3704,4.3695,4.3967,4.4001,4.3772,4.3774,4.3776,0,4.2979,4.3054,4.31,4.3144,4.317,4.3243,4.3286,4.328,4.3327,4.3385,4.3441,4.3516,4.3575,4.37,4.372,4.3789,4.3777,4.3867,4.3787,4.3786,4.3775,4.3769,4.3775,4.3882,4.3885,4.3887,4.3889,0,4.3195,4.3193,4.3257,4.3321,4.3373,4.3424,4.3471,4.3509,4.3508,4.3562,4.3639,4.3685,4.3776,4.3849,4.3915,4.394,4.3914,4.3914,4.3936,4.3938,4.3931,4.3933,4.3667,4.3907,4.3906,4.3904,4.3903,4.3902,4.335,4.3413,4.3454,4.3524,4.3558,4.3602,4.3663,4.3679,4.3743,4.3815,4.3808,4.3894,4.3937,4.4022,4.4053,4.4119,4.4088,4.4121,4.4129,4.4136,4.4143,4.3922,4.4132,4.4131,4.4131,4.413,4.413,0,4.3561,4.3585,4.365,4.3715,4.377,4.3739,4.3789,4.3837,4.3912,4.3954,4.4012,4.4099,4.417,4.4194,4.4262,4.4311,4.43,4.4329,4.4324,4.433,4.4168,4.4141,4.4336,4.4336,4.4336,4.4336,4.4336,4.4335,4.3678,4.3782,4.3784,4.3904,4.3927,4.4009,4.404,4.4079,4.4112,4.4211,4.4268,4.4283,4.4317,4.4387,4.445,4.4455,4.4481,4.4514,4.4514,4.4362,4.4341,4.4322,4.4296,4.452,4.452,4.4669,4.467,4.4671]},{"header":{"parameterUnit":"m.s-1","parameterCategory":1,"la1":30.2991,"la2":30.254,"lo1":-89.0895,"lo2":-89.0444,"dy":0.0017,"dx":0.0017,"nx":28,"ny":28,"refTime":"2025-06-18T21:00:00:Z","depth":0,"parameterNumber":3,"parameterNumberName":"V-component_of_WINDS"},"data":[0,0,0,0,0,0,0,0,0,0,0,0,0,0,0,0,0,0,0,0,0,0,0,0,0,0,0,0,0,0,0,0,0,0,0,0,0,0,0,0,0,0,0,0,0,0,0,0,0,0,0,0,0,0,0,0,0,0,2.5642,2.5642,0,2.5668,2.5668,2.5668,2.5635,2.5634,2.5633,2.5632,2.5658,2.566,2.5661,0,0,0,0,0,0,0,0,0,0,0,0,0,2.5563,2.5565,2.5642,2.5642,2.5643,2.5668,2.5668,2.5668,2.5635,2.5634,2.5633,2.5631,2.5657,2.5659,2.5661,0,0,0,0,0,0,0,0,0,0,0,0,0,2.5594,2.5565,2.5642,2.5629,2.5628,2.5667,2.5668,2.5668,2.5636,2.5634,2.5632,2.5631,2.5656,2.5659,2.5662,2.5714,0,0,2.567,2.5671,0,0,0,0,0,0,0,0,2.5592,2.5597,2.5631,2.563,2.5629,2.5646,2.565,2.5684,2.5636,2.5633,2.5632,2.563,2.5655,2.5658,2.5667,2.5716,2.5717,2.567,2.5672,2.5673,2.5674,0,0,0,0,0,0,0,2.559,2.5596,2.5652,2.5631,2.563,2.5622,2.5624,2.5656,2.5654,2.5633,2.5631,2.5634,2.5655,2.5664,2.5667,2.5717,2.567,2.5673,2.5674,2.5675,2.5808,2.581,0,0,0,0,0,0,2.559,2.5594,2.5651,2.5653,2.5606,2.5625,2.5627,2.5643,2.5654,2.5653,2.5636,2.5633,2.5661,2.5664,2.5668,2.5729,2.5673,2.5676,2.5677,2.5806,2.5809,2.5811,0,0,0,0,0,0,2.5588,2.5595,2.565,2.5623,2.5629,2.5628,2.5645,2.5644,2.5654,2.5656,2.5655,2.5646,2.5659,2.5664,2.5703,2.573,2.5677,2.5679,2.5804,2.5807,2.581,2.5852,0,0,0,0,0,0,2.5586,2.5595,2.5615,2.5624,2.5631,2.5685,2.5647,2.5646,2.5659,2.5655,2.5665,2.5665,2.5658,2.5699,2.5705,2.5732,2.5681,2.5802,2.5805,2.5809,2.5849,2.5856,2.5863,0,0,0,0,0,2.5583,2.5627,2.5617,2.5624,2.5657,2.5687,2.5691,2.5682,2.5661,2.5681,2.5682,2.5665,2.5725,2.5703,2.571,2.5738,2.58,2.5804,2.5808,2.5845,2.5855,2.5863,0,0,0,0,0,0,2.5622,2.5628,2.5616,2.5664,2.5675,2.5681,2.5707,2.5693,2.571,2.5706,2.5694,2.5697,2.5738,2.5742,2.5717,2.5789,2.5759,2.5765,2.5785,2.5794,2.5801,2.5799,2.5684,0,0,0,0,0,2.5636,2.5661,2.5664,2.5706,2.5712,2.5708,2.5721,2.5713,2.5724,2.5729,2.5733,2.5744,2.5765,2.578,2.58,2.5849,2.585,2.5871,2.5879,2.5885,2.589,2.5914,2.5924,2.5825,2.5825,2.5824,0,0,2.5666,2.5672,2.5688,2.5714,2.5721,2.5746,2.5713,2.5741,2.5759,2.5733,2.577,2.5773,2.5784,2.5828,2.5847,2.5832,2.5917,2.589,2.5895,2.5897,2.592,2.5929,2.5937,2.5828,2.5827,2.5827,0,0,2.5732,2.574,2.5774,2.5782,2.5794,2.5791,2.5799,2.5807,2.5808,2.5844,2.5825,2.5846,2.5883,2.5892,2.5901,2.5968,2.5953,2.5975,2.6013,2.6037,2.6045,2.6051,2.6074,2.6083,2.598,2.598,2.598,0,2.5768,2.5805,2.5794,2.5823,2.5834,2.5811,2.5846,2.5854,2.5872,2.588,2.5863,2.5908,2.5914,2.5959,2.5975,2.5984,2.5992,2.5974,2.6044,2.6051,2.6057,2.6079,2.6088,2.5983,2.5983,2.5982,2.5982,0,2.5847,2.5873,2.5899,2.5916,2.593,2.5962,2.5955,2.597,2.5961,2.5959,2.5995,2.6002,2.6022,2.6031,2.6023,2.6074,2.6064,2.6046,2.6016,2.607,2.609,2.6098,2.5987,2.5986,2.5985,2.5984,0,0,2.594,2.5949,2.5959,2.5965,2.5976,2.5995,2.6025,2.6044,2.6057,2.6069,2.6093,2.6124,2.6107,2.6118,2.6109,2.6131,2.6182,2.6109,2.6109,2.6122,2.6237,2.625,2.626,2.6171,2.6173,2.6174,2.6236,0,2.6005,2.6057,2.6047,2.6097,2.612,2.6097,2.6123,2.6132,2.6131,2.6149,2.6148,2.617,2.6146,2.6152,2.6172,2.6171,2.6205,2.6167,2.6193,2.6194,2.619,2.6271,2.6286,2.6344,2.6244,2.6245,2.6246,0,2.6089,2.6104,2.6156,2.616,2.617,2.6193,2.6209,2.6227,2.6236,2.6233,2.6244,2.6231,2.626,2.6229,2.6268,2.6242,2.6252,2.6253,2.6255,2.6257,2.6223,2.6274,2.6362,2.6371,2.6258,2.6257,2.6257,0,2.615,2.6183,2.6218,2.6224,2.6231,2.6248,2.6251,2.6258,2.627,2.6283,2.629,2.6307,2.6316,2.6329,2.6321,2.63,2.636,2.633,2.6359,2.6359,2.6372,2.6372,2.6462,2.638,2.638,2.6379,2.6379,0,2.6224,2.6257,2.6245,2.6267,2.6302,2.629,2.6325,2.6326,2.6332,2.6352,2.6334,2.6354,2.6342,2.636,2.6354,2.6386,2.639,2.6388,2.6386,2.639,2.639,2.6396,2.6392,2.6382,2.6381,2.6381,2.638,0,2.6299,2.6293,2.6329,2.6332,2.6333,2.6359,2.6361,2.638,2.6377,2.6403,2.6409,2.6404,2.6424,2.6417,2.6439,2.6435,2.6475,2.6468,2.6473,2.6471,2.65,2.6497,2.6597,2.6609,2.6519,2.652,2.6521,0,2.6347,2.6371,2.6375,2.6388,2.6392,2.6413,2.6424,2.6412,2.6424,2.6435,2.6453,2.6471,2.6486,2.652,2.6518,2.6534,2.6527,2.6561,2.6529,2.6532,2.6526,2.6525,2.6527,2.6567,2.6568,2.6569,2.657,0,2.6431,2.6426,2.6443,2.6458,2.6471,2.6483,2.6493,2.6504,2.6493,2.6507,2.6528,2.6539,2.6561,2.6579,2.6594,2.6596,2.6581,2.658,2.6587,2.6591,2.6592,2.6591,2.6489,2.6578,2.6577,2.6576,2.6576,2.6575,2.6493,2.6512,2.6518,2.6537,2.6543,2.6552,2.657,2.6568,2.6585,2.6602,2.6594,2.6617,2.6623,2.6641,2.6646,2.6663,2.665,2.6661,2.6664,2.6667,2.667,2.6589,2.6666,2.6666,2.6666,2.6666,2.6665,0,2.6575,2.6577,2.6595,2.6608,2.6623,2.6606,2.6616,2.6629,2.665,2.6657,2.6671,2.6693,2.6711,2.671,2.6725,2.674,2.6733,2.6744,2.6743,2.6743,2.6681,2.6673,2.6749,2.6749,2.6749,2.6749,2.6749,2.6749,2.662,2.6652,2.6647,2.6681,2.6683,2.6706,2.6712,2.672,2.6725,2.6751,2.6765,2.6764,2.6768,2.6783,2.6798,2.6797,2.6804,2.6817,2.6814,2.6756,2.6748,2.674,2.6732,2.6819,2.6819,2.6874,2.6875,2.6875]}]]